Location: Bothwell
(42.3833°S, 147.0000°E)
Time: 19:53:28
(UTC+11:00)

First-Move - Pass Details

Date: 25 September 2022
Orbit: 570 x 653 km, 97.7° (Epoch: 25 November)

Event Time Altitude Azimuth Distance (km) Brightness Sun altitude
Exits shadow 02:15:42 17° 140° (SE) 1,649 ? -37.8°
Drops below altitude 10° 02:17:34 10° 162° (SSE) 2,101 ? -37.5°
Enters shadow 03:29:14 -35° 8° (N) 8,321 ? -27.0°
